Weather History for Bartlesville, OK

Change the Weather History Date:

Wednesday, March 14, 2012

  Actual Average Record
Temperature  
Mean Temperature 70 °F -  
Max Temperature 79 °F 63 °F 83 °F (1971)
Min Temperature 62 °F 34 °F 12 °F (1950)
Cooling Degree Days 5    
Growing Degree Days 20 (Base 50)    
Moisture  
Dew Point 62 °F    
Average Humidity 77    
Maximum Humidity 97    
Minimum Humidity 57    
Precipitation  
Precipitation 0.00 in - - ()
Sea Level Pressure  
Sea Level Pressure 29.98 in    
Wind  
Wind Speed 11 mph (South)    
Max Wind Speed 21 mph    
Max Gust Speed 30 mph    
Visibility 10 miles    
Events      
Averages and records for this station are not official NWS values.
T = Trace of Precipitation, MM = Missing Value Source: NWS Daily Summary

Daily Weather History Graph

Daily Weather History Graph

Search for Another Location

Airport:

Trip Planner

Search our weather history database for the weather conditions in past years. The results will help you decide how hot, cold, wet, or windy it might be!

Date:

Astronomy

Mar. 14, 2012 Rise Set
Actual Time 7:35 AM CDT 7:30 PM CDT
Civil Twilight 7:09 AM CDT 7:56 PM CDT
Nautical Twilight 6:39 AM CDT 8:26 PM CDT
Astronomical Twilight 6:09 AM CDT 8:57 PM CDT
Moon 1:57 AM CDT (3/14) 11:57 AM CDT (3/14)
Length of Visible Light 12h 46m
Length of Day
11h 55m
Waning Gibbous, 54% of the Moon is Illuminated
Mar 14
Waning Gibbous
Mar 14
Last Quarter
Mar 22
New
Mar 30
First Quarter
Apr 6
Full

Hourly Weather History & Observations

Time (CDT) Temp. Dew Point Humidity Pressure Visibility Wind Dir Wind Speed Gust Speed Precip Events Conditions
12:53 AM 62.1 °F 59.0 °F 90% 29.96 in 10.0 mi South 8.1 mph - N/A   Clear
1:53 AM 63.0 °F 60.1 °F 90% 29.95 in 10.0 mi South 9.2 mph - N/A   Overcast
3:53 AM 64.0 °F 60.1 °F 87% 29.93 in 10.0 mi South 8.1 mph - N/A   Clear
4:13 AM 64.4 °F 60.8 °F 88% 29.96 in 10.0 mi South 8.1 mph - N/A   Mostly Cloudy
4:53 AM 64.9 °F 61.0 °F 87% 29.94 in 10.0 mi South 6.9 mph - N/A   Overcast
5:53 AM 64.0 °F 61.0 °F 90% 29.95 in 10.0 mi SSE 9.2 mph - N/A   Overcast
6:53 AM 63.0 °F 61.0 °F 93% 29.96 in 10.0 mi SSE 6.9 mph - N/A   Overcast
7:53 AM 63.0 °F 62.1 °F 97% 29.98 in 7.0 mi South 6.9 mph - N/A   Scattered Clouds
8:07 AM 64.4 °F 62.6 °F 94% 30.01 in 8.0 mi South 6.9 mph - N/A   Mostly Cloudy
8:16 AM 66.2 °F 64.4 °F 94% 30.01 in 9.0 mi South 8.1 mph - N/A   Mostly Cloudy
8:46 AM 68.0 °F 64.4 °F 88% 30.02 in 10.0 mi South 10.4 mph - N/A   Overcast
8:53 AM 69.1 °F 64.0 °F 84% 30.00 in 10.0 mi South 11.5 mph - N/A   Overcast
9:12 AM 69.8 °F 64.4 °F 83% 30.02 in 10.0 mi South 12.7 mph - N/A   Overcast
9:45 AM 71.6 °F 64.4 °F 78% 30.02 in 10.0 mi South 11.5 mph 20.7 mph N/A   Overcast
9:53 AM 71.1 °F 64.0 °F 78% 29.99 in 10.0 mi South 10.4 mph 21.9 mph N/A   Overcast
10:53 AM 72.0 °F 64.0 °F 76% 30.00 in 10.0 mi SSW 16.1 mph 23.0 mph N/A   Overcast
11:53 AM 75.0 °F 63.0 °F 66% 30.01 in 10.0 mi SSW 20.7 mph 29.9 mph N/A   Mostly Cloudy
12:53 PM 77.0 °F 64.0 °F 64% 30.01 in 10.0 mi South 18.4 mph 26.5 mph N/A   Mostly Cloudy
1:15 PM 75.2 °F 62.6 °F 65% 30.02 in 10.0 mi South 18.4 mph 26.5 mph N/A   Mostly Cloudy
1:53 PM 77.0 °F 63.0 °F 62% 29.98 in 10.0 mi South 19.6 mph 27.6 mph N/A   Mostly Cloudy
2:23 PM 78.8 °F 62.6 °F 57% 29.99 in 10.0 mi South 19.6 mph 27.6 mph N/A   Scattered Clouds
2:53 PM 75.9 °F 62.1 °F 62% 29.96 in 10.0 mi South 19.6 mph 27.6 mph N/A   Mostly Cloudy
3:53 PM 77.0 °F 61.0 °F 58% 29.95 in 10.0 mi SSW 20.7 mph 28.8 mph N/A   Mostly Cloudy
4:53 PM 75.9 °F 61.0 °F 60% 29.95 in 10.0 mi South 18.4 mph 27.6 mph N/A   Mostly Cloudy
5:53 PM 75.0 °F 61.0 °F 62% 29.96 in 10.0 mi South 15.0 mph 23.0 mph N/A   Mostly Cloudy
6:53 PM 73.9 °F 61.0 °F 64% 29.97 in 10.0 mi South 10.4 mph 19.6 mph N/A   Overcast
7:53 PM 73.0 °F 60.1 °F 64% 29.97 in 10.0 mi South 6.9 mph - N/A   Overcast
8:53 PM 71.1 °F 60.1 °F 68% 29.98 in 10.0 mi South 8.1 mph - N/A   Mostly Cloudy
9:53 PM 70.0 °F 60.1 °F 71% 29.99 in 10.0 mi South 9.2 mph - N/A   Mostly Cloudy
10:53 PM 69.1 °F 61.0 °F 75% 30.00 in 10.0 mi South 6.9 mph - N/A   Mostly Cloudy
11:53 PM 68.0 °F 61.0 °F 78% 30.02 in 10.0 mi South 6.9 mph - N/A   Mostly Cloudy